Time,TemperatureF,DewpointF,PressureIn,WindDirection,WindDirectionDegrees,WindSpeedMPH,WindSpeedGustMPH,Humidity,HourlyPrecipIn,Conditions,Clouds,dailyrainin,SoftwareType,DateUTC
2013-09-21 00:01:00,60.4,55.9,29.28,SSE,159,0.0,2.0,85,0.00,,,0.00,meteohub,2013-09-21 04:01:00,
2013-09-21 00:02:00,60.4,55.9,29.28,SSE,158,0.0,2.0,85,0.00,,,0.00,meteohub,2013-09-21 04:02:00,
2013-09-21 00:07:00,60.4,56.3,29.27,SSE,165,0.0,4.0,86,0.00,,,0.00,meteohub,2013-09-21 04:07:00,
2013-09-21 00:12:00,60.3,56.1,29.27,SSE,157,0.0,4.0,86,0.00,,,0.00,meteohub,2013-09-21 04:12:00,
2013-09-21 00:17:00,60.3,56.1,29.27,South,185,0.0,4.0,86,0.00,,,0.00,meteohub,2013-09-21 04:17:00,
2013-09-21 00:22:00,60.3,56.1,29.26,SSE,153,0.0,3.0,86,0.00,,,0.00,meteohub,2013-09-21 04:22:00,
2013-09-21 00:27:00,60.3,56.1,29.27,SSW,196,0.0,3.0,86,0.00,,,0.00,meteohub,2013-09-21 04:27:00,
2013-09-21 00:32:00,60.1,55.9,29.27,SSW,197,0.0,3.0,86,0.00,,,0.00,meteohub,2013-09-21 04:32:00,
2013-09-21 00:37:00,60.1,55.9,29.26,SSE,163,0.0,3.0,86,0.00,,,0.00,meteohub,2013-09-21 04:37:00,
2013-09-21 00:42:00,60.1,56.1,29.26,SSW,195,0.0,2.0,87,0.00,,,0.00,meteohub,2013-09-21 04:42:00,
2013-09-21 00:47:00,59.9,55.9,29.26,South,171,1.0,2.0,87,0.00,,,0.00,meteohub,2013-09-21 04:47:00,
2013-09-21 00:52:00,59.7,55.8,29.26,SSE,158,0.0,3.0,87,0.00,,,0.00,meteohub,2013-09-21 04:52:00,
2013-09-21 00:57:00,59.7,55.8,29.26,WSW,244,0.0,3.0,87,0.00,,,0.00,meteohub,2013-09-21 04:57:00,
2013-09-21 01:02:00,59.5,55.6,29.25,SE,142,1.0,4.0,87,0.00,,,0.00,meteohub,2013-09-21 05:02:00,
2013-09-21 01:07:00,59.5,55.6,29.26,South,184,0.0,5.0,87,0.00,,,0.00,meteohub,2013-09-21 05:07:00,
2013-09-21 01:12:00,59.4,55.4,29.25,SSW,197,0.0,5.0,87,0.00,,,0.00,meteohub,2013-09-21 05:12:00,
2013-09-21 01:17:00,59.4,55.4,29.26,South,180,0.0,5.0,87,0.00,,,0.00,meteohub,2013-09-21 05:17:00,
2013-09-21 01:22:00,59.2,55.4,29.26,SSW,198,0.0,5.0,87,0.00,,,0.00,meteohub,2013-09-21 05:22:00,
2013-09-21 01:27:00,59.2,55.4,29.26,SSW,213,0.0,5.0,87,0.00,,,0.00,meteohub,2013-09-21 05:27:00,
2013-09-21 01:32:00,59.0,55.4,29.25,SW,217,0.0,5.0,88,0.00,,,0.00,meteohub,2013-09-21 05:32:00,
2013-09-21 01:37:00,59.0,55.4,29.25,SSE,153,0.0,5.0,88,0.00,,,0.00,meteohub,2013-09-21 05:37:00,
2013-09-21 01:42:00,59.0,55.4,29.25,SSE,147,0.0,5.0,88,0.00,,,0.00,meteohub,2013-09-21 05:42:00,
2013-09-21 01:47:00,59.0,55.4,29.25,SSE,147,0.0,5.0,88,0.00,,,0.00,meteohub,2013-09-21 05:47:00,
2013-09-21 01:52:00,59.0,55.4,29.25,SSE,147,0.0,5.0,88,0.00,,,0.00,meteohub,2013-09-21 05:52:00,
2013-09-21 01:57:00,59.0,55.4,29.25,SSE,149,0.0,2.0,88,0.00,,,0.00,meteohub,2013-09-21 05:57:00,
2013-09-21 02:02:00,59.0,55.4,29.24,South,186,0.0,4.0,88,0.00,,,0.00,meteohub,2013-09-21 06:02:00,
2013-09-21 02:07:00,59.0,55.4,29.24,South,186,0.0,4.0,88,0.00,,,0.00,meteohub,2013-09-21 06:07:00,
2013-09-21 02:12:00,58.8,55.2,29.24,ESE,120,0.0,4.0,88,0.00,,,0.00,meteohub,2013-09-21 06:12:00,
2013-09-21 02:17:00,58.6,55.0,29.24,ENE,74,0.0,3.0,88,0.00,,,0.00,meteohub,2013-09-21 06:17:00,
2013-09-21 02:22:00,58.6,55.0,29.24,SSW,210,0.0,0.0,88,0.00,,,0.00,meteohub,2013-09-21 06:22:00,
2013-09-21 02:27:00,58.5,54.9,29.23,SW,214,2.0,8.0,88,0.00,,,0.00,meteohub,2013-09-21 06:27:00,
2013-09-21 02:32:00,58.5,54.9,29.23,South,181,0.0,8.0,88,0.00,,,0.00,meteohub,2013-09-21 06:32:00,
2013-09-21 02:37:00,58.5,54.9,29.24,SSW,202,0.0,8.0,88,0.00,,,0.00,meteohub,2013-09-21 06:37:00,
2013-09-21 02:42:00,58.5,54.9,29.24,South,178,0.0,3.0,88,0.00,,,0.00,meteohub,2013-09-21 06:42:00,
2013-09-21 02:47:00,58.3,54.7,29.24,SSW,198,0.0,3.0,88,0.00,,,0.00,meteohub,2013-09-21 06:47:00,
2013-09-21 02:52:00,58.3,54.7,29.24,South,178,0.0,1.0,88,0.00,,,0.00,meteohub,2013-09-21 06:52:00,
2013-09-21 02:57:00,58.3,54.7,29.23,SW,226,0.0,3.0,88,0.00,,,0.00,meteohub,2013-09-21 06:57:00,
2013-09-21 03:02:00,58.1,54.5,29.23,SSE,163,0.0,4.0,88,0.00,,,0.00,meteohub,2013-09-21 07:02:00,
2013-09-21 03:04:00,58.1,54.5,29.23,SSE,154,0.0,4.0,88,0.00,,,0.00,meteohub,2013-09-21 07:04:00,
2013-09-21 03:12:00,57.9,54.3,29.23,SSE,167,0.0,4.0,88,0.00,,,0.00,meteohub,2013-09-21 07:12:00,
2013-09-21 03:17:00,57.9,54.3,29.23,SSE,167,0.0,3.0,88,0.00,,,0.00,meteohub,2013-09-21 07:17:00,
2013-09-21 03:22:00,57.9,54.3,29.23,SSE,159,0.0,5.0,88,0.00,,,0.00,meteohub,2013-09-21 07:22:00,
2013-09-21 03:27:00,58.1,54.5,29.23,South,171,3.0,5.0,88,0.00,,,0.00,meteohub,2013-09-21 07:27:00,
2013-09-21 03:32:00,58.1,54.5,29.22,SSW,203,0.0,5.0,88,0.00,,,0.00,meteohub,2013-09-21 07:32:00,
2013-09-21 03:37:00,57.9,54.3,29.22,SSE,161,0.0,5.0,88,0.00,,,0.00,meteohub,2013-09-21 07:37:00,
2013-09-21 03:42:00,57.9,54.3,29.22,SE,146,0.0,5.0,88,0.00,,,0.00,meteohub,2013-09-21 07:42:00,
2013-09-21 03:47:00,57.9,54.1,29.22,South,175,0.0,5.0,87,0.00,,,0.00,meteohub,2013-09-21 07:47:00,
2013-09-21 03:52:00,57.9,53.8,29.22,South,171,0.0,6.0,86,0.00,,,0.00,meteohub,2013-09-21 07:52:00,
2013-09-21 03:57:00,57.9,53.8,29.22,SSE,168,1.0,7.0,86,0.00,,,0.00,meteohub,2013-09-21 07:57:00,
2013-09-21 04:02:00,57.9,53.8,29.22,SSE,158,0.0,7.0,86,0.00,,,0.00,meteohub,2013-09-21 08:02:00,
2013-09-21 04:07:00,58.1,54.0,29.21,South,191,0.0,7.0,86,0.00,,,0.00,meteohub,2013-09-21 08:07:00,
2013-09-21 04:12:00,58.1,54.0,29.21,South,178,0.0,7.0,86,0.00,,,0.00,meteohub,2013-09-21 08:12:00,
2013-09-21 04:17:00,58.3,53.8,29.21,SSE,147,0.0,8.0,85,0.00,,,0.00,meteohub,2013-09-21 08:17:00,
2013-09-21 04:22:00,58.3,53.8,29.21,SSE,148,0.0,8.0,85,0.00,,,0.00,meteohub,2013-09-21 08:22:00,
2013-09-21 04:27:00,58.3,53.8,29.21,SSW,202,0.0,8.0,85,0.00,,,0.00,meteohub,2013-09-21 08:27:00,
2013-09-21 04:32:00,58.1,53.6,29.22,SSW,202,0.0,5.0,85,0.00,,,0.00,meteohub,2013-09-21 08:32:00,
2013-09-21 04:37:00,57.9,53.4,29.22,SSE,168,0.0,3.0,85,0.00,,,0.00,meteohub,2013-09-21 08:37:00,
2013-09-21 04:42:00,57.7,53.2,29.22,SSE,150,0.0,5.0,85,0.00,,,0.00,meteohub,2013-09-21 08:42:00,
2013-09-21 04:47:00,57.7,53.6,29.22,SSE,155,0.0,5.0,86,0.00,,,0.00,meteohub,2013-09-21 08:47:00,
2013-09-21 04:52:00,57.7,53.6,29.22,South,171,0.0,5.0,86,0.00,,,0.00,meteohub,2013-09-21 08:52:00,
2013-09-21 04:57:00,57.6,53.4,29.22,South,171,0.0,3.0,86,0.00,,,0.00,meteohub,2013-09-21 08:57:00,
2013-09-21 05:02:00,57.6,53.4,29.22,South,172,0.0,4.0,86,0.00,,,0.00,meteohub,2013-09-21 09:02:00,
2013-09-21 05:07:00,57.4,53.6,29.22,South,172,0.0,4.0,87,0.00,,,0.00,meteohub,2013-09-21 09:07:00,
2013-09-21 05:12:00,57.4,53.6,29.22,ESE,119,0.0,4.0,87,0.00,,,0.00,meteohub,2013-09-21 09:12:00,
2013-09-21 05:17:00,57.2,53.4,29.21,NNW,346,0.0,4.0,87,0.00,,,0.00,meteohub,2013-09-21 09:17:00,
2013-09-21 05:22:00,57.2,53.6,29.21,SSW,213,0.0,1.0,88,0.00,,,0.00,meteohub,2013-09-21 09:22:00,
2013-09-21 05:27:00,57.2,53.6,29.21,SSE,168,0.0,2.0,88,0.00,,,0.00,meteohub,2013-09-21 09:27:00,
2013-09-21 05:32:00,57.2,53.6,29.21,SSE,167,0.0,2.0,88,0.00,,,0.00,meteohub,2013-09-21 09:32:00,
2013-09-21 05:37:00,57.2,53.6,29.21,SW,236,0.0,2.0,88,0.00,,,0.00,meteohub,2013-09-21 09:37:00,
2013-09-21 05:42:00,57.2,53.6,29.21,SSE,159,0.0,1.0,88,0.00,,,0.00,meteohub,2013-09-21 09:42:00,
2013-09-21 05:47:00,57.2,53.6,29.21,SSE,151,0.0,1.0,88,0.00,,,0.00,meteohub,2013-09-21 09:47:00,
2013-09-21 05:52:00,57.2,53.6,29.21,SSE,151,0.0,6.0,88,0.00,,,0.00,meteohub,2013-09-21 09:52:00,
2013-09-21 05:57:00,57.2,53.6,29.21,SSE,151,0.0,6.0,88,0.00,,,0.00,meteohub,2013-09-21 09:57:00,
2013-09-21 06:02:00,57.2,53.6,29.21,SE,127,0.0,6.0,88,0.00,,,0.00,meteohub,2013-09-21 10:02:00,
2013-09-21 06:07:00,57.4,53.8,29.21,SE,140,0.0,0.0,88,0.00,,,0.00,meteohub,2013-09-21 10:07:00,
2013-09-21 06:12:00,57.4,53.8,29.22,SSW,196,0.0,4.0,88,0.00,,,0.00,meteohub,2013-09-21 10:12:00,
2013-09-21 06:17:00,57.4,53.8,29.22,SSE,163,0.0,4.0,88,0.00,,,0.00,meteohub,2013-09-21 10:17:00,
2013-09-21 06:22:00,57.6,54.0,29.22,SSE,163,0.0,4.0,88,0.00,,,0.00,meteohub,2013-09-21 10:22:00,
2013-09-21 06:27:00,57.7,54.5,29.22,South,190,0.0,2.0,89,0.00,,,0.00,meteohub,2013-09-21 10:27:00,
2013-09-21 06:32:00,57.7,54.5,29.22,SW,218,0.0,3.0,89,0.00,,,0.00,meteohub,2013-09-21 10:32:00,
2013-09-21 06:37:00,57.9,54.7,29.21,SSW,200,0.0,5.0,89,0.00,,,0.00,meteohub,2013-09-21 10:37:00,
2013-09-21 06:42:00,58.3,55.0,29.21,SSW,200,0.0,5.0,89,0.00,,,0.00,meteohub,2013-09-21 10:42:00,
2013-09-21 06:47:00,58.6,55.4,29.21,SSW,208,0.0,6.0,89,0.00,,,0.00,meteohub,2013-09-21 10:47:00,
2013-09-21 06:52:00,59.0,56.1,29.21,SSW,207,0.0,6.0,90,0.00,,,0.00,meteohub,2013-09-21 10:52:00,
2013-09-21 06:57:00,59.0,56.1,29.21,SSW,193,3.0,6.0,90,0.00,,,0.00,meteohub,2013-09-21 10:57:00,
2013-09-21 07:02:00,59.0,56.1,29.20,SSW,196,0.0,5.0,90,0.00,,,0.00,meteohub,2013-09-21 11:02:00,
2013-09-21 07:07:00,59.0,56.1,29.20,SW,220,0.0,5.0,90,0.00,,,0.00,meteohub,2013-09-21 11:07:00,
2013-09-21 07:12:00,59.0,56.1,29.20,SW,220,0.0,5.0,90,0.00,,,0.00,meteohub,2013-09-21 11:12:00,
2013-09-21 07:17:00,59.0,56.1,29.20,South,182,0.0,3.0,90,0.00,,,0.00,meteohub,2013-09-21 11:17:00,
2013-09-21 07:22:00,59.0,56.1,29.20,SSW,210,1.0,3.0,90,0.00,,,0.00,meteohub,2013-09-21 11:22:00,
2013-09-21 07:27:00,59.0,56.1,29.19,South,187,0.0,5.0,90,0.00,,,0.00,meteohub,2013-09-21 11:27:00,
2013-09-21 07:32:00,59.0,56.1,29.19,SE,128,0.0,8.0,90,0.00,,,0.00,meteohub,2013-09-21 11:32:00,
2013-09-21 07:37:00,59.0,56.1,29.19,SSW,192,0.0,8.0,90,0.00,,,0.00,meteohub,2013-09-21 11:37:00,
2013-09-21 07:42:00,59.0,56.1,29.20,South,170,0.0,8.0,90,0.00,,,0.00,meteohub,2013-09-21 11:42:00,
2013-09-21 07:47:00,59.0,56.3,29.19,SSW,206,3.0,7.0,91,0.00,,,0.00,meteohub,2013-09-21 11:47:00,
2013-09-21 07:52:00,59.0,56.3,29.19,SW,230,0.0,7.0,91,0.00,,,0.00,meteohub,2013-09-21 11:52:00,
2013-09-21 07:57:00,59.0,56.3,29.19,SSW,198,0.0,5.0,91,0.00,,,0.00,meteohub,2013-09-21 11:57:00,
2013-09-21 08:02:00,59.0,56.3,29.19,SSE,156,0.0,8.0,91,0.00,,,0.00,meteohub,2013-09-21 12:02:00,
2013-09-21 08:07:00,59.0,56.3,29.18,SSW,192,0.0,8.0,91,0.00,,,0.00,meteohub,2013-09-21 12:07:00,
2013-09-21 08:12:00,59.0,56.3,29.18,South,183,0.0,8.0,91,0.00,,,0.00,meteohub,2013-09-21 12:12:00,
2013-09-21 08:17:00,59.2,56.8,29.18,SSW,197,2.0,5.0,92,0.00,,,0.00,meteohub,2013-09-21 12:17:00,
2013-09-21 08:22:00,59.4,57.0,29.18,South,190,0.0,6.0,92,0.00,,,0.00,meteohub,2013-09-21 12:22:00,
2013-09-21 08:27:00,59.5,57.2,29.18,WSW,237,1.0,6.0,92,0.00,,,0.00,meteohub,2013-09-21 12:27:00,
2013-09-21 08:32:00,59.9,57.9,29.18,SSW,207,0.0,6.0,93,0.00,,,0.00,meteohub,2013-09-21 12:32:00,
2013-09-21 08:37:00,60.3,58.3,29.18,SSE,148,0.0,6.0,93,0.00,,,0.00,meteohub,2013-09-21 12:37:00,
2013-09-21 08:42:00,60.4,58.5,29.18,South,182,2.0,6.0,93,0.00,,,0.00,meteohub,2013-09-21 12:42:00,
2013-09-21 08:47:00,60.6,58.6,29.18,SSE,151,1.0,9.0,93,0.00,,,0.00,meteohub,2013-09-21 12:47:00,
2013-09-21 08:52:00,60.8,58.8,29.18,SSW,204,6.0,9.0,93,0.00,,,0.00,meteohub,2013-09-21 12:52:00,
2013-09-21 08:57:00,61.2,59.2,29.18,SSW,202,0.0,9.0,93,0.00,,,0.00,meteohub,2013-09-21 12:57:00,
2013-09-21 09:02:00,61.5,59.5,29.18,SSW,196,0.0,9.0,93,0.00,,,0.00,meteohub,2013-09-21 13:02:00,
2013-09-21 09:07:00,62.1,60.1,29.18,South,179,1.0,8.0,93,0.00,,,0.00,meteohub,2013-09-21 13:07:00,
2013-09-21 09:12:00,62.4,60.4,29.18,SSW,213,1.0,7.0,93,0.00,,,0.00,meteohub,2013-09-21 13:12:00,
2013-09-21 09:17:00,62.8,60.8,29.17,SSE,154,0.0,7.0,93,0.00,,,0.00,meteohub,2013-09-21 13:17:00,
2013-09-21 09:22:00,63.1,60.8,29.18,SSE,155,0.0,7.0,92,0.00,,,0.00,meteohub,2013-09-21 13:22:00,
2013-09-21 09:27:00,63.3,61.0,29.17,South,171,0.0,7.0,92,0.00,,,0.00,meteohub,2013-09-21 13:27:00,
2013-09-21 09:32:00,63.5,60.8,29.17,SE,132,1.0,7.0,91,0.00,,,0.00,meteohub,2013-09-21 13:32:00,
2013-09-21 09:37:00,63.9,61.2,29.17,SSE,151,0.0,6.0,91,0.00,,,0.00,meteohub,2013-09-21 13:37:00,
2013-09-21 09:42:00,63.9,60.8,29.17,ESE,106,0.0,10.0,90,0.00,,,0.00,meteohub,2013-09-21 13:42:00,
2013-09-21 09:47:00,64.0,61.0,29.16,SE,145,0.0,14.0,90,0.00,,,0.00,meteohub,2013-09-21 13:47:00,
2013-09-21 09:52:00,64.6,61.5,29.16,SSE,161,0.0,14.0,90,0.00,,,0.00,meteohub,2013-09-21 13:52:00,
2013-09-21 09:57:00,64.9,61.9,29.16,NW,315,0.0,14.0,90,0.05,,,0.02,meteohub,2013-09-21 13:57:00,
2013-09-21 10:02:00,65.1,61.5,29.16,South,190,0.0,9.0,88,0.05,,,0.05,meteohub,2013-09-21 14:02:00,
2013-09-21 10:07:00,65.7,62.1,29.16,SE,144,0.0,8.0,88,0.05,,,0.05,meteohub,2013-09-21 14:07:00,
2013-09-21 10:09:00,65.7,61.7,29.16,SSW,193,0.0,8.0,87,0.05,,,0.05,meteohub,2013-09-21 14:09:00,
2013-09-21 10:12:00,65.8,62.2,29.16,SSW,212,0.0,11.0,88,0.05,,,0.05,meteohub,2013-09-21 14:12:00,
2013-09-21 10:17:00,66.4,62.4,29.16,North,5,0.0,11.0,87,0.05,,,0.05,meteohub,2013-09-21 14:17:00,
2013-09-21 10:22:00,66.9,63.0,29.16,ESE,121,0.0,11.0,87,0.05,,,0.05,meteohub,2013-09-21 14:22:00,
2013-09-21 10:27:00,67.3,62.6,29.16,SE,143,3.0,6.0,85,0.05,,,0.05,meteohub,2013-09-21 14:27:00,
2013-09-21 10:32:00,67.6,63.3,29.16,SE,146,0.0,8.0,86,0.05,,,0.05,meteohub,2013-09-21 14:32:00,
2013-09-21 10:37:00,68.4,63.3,29.15,SW,216,0.0,8.0,84,0.05,,,0.05,meteohub,2013-09-21 14:37:00,
2013-09-21 10:42:00,68.4,63.3,29.15,SSW,199,0.0,8.0,84,0.05,,,0.05,meteohub,2013-09-21 14:42:00,
2013-09-21 10:47:00,68.4,63.0,29.15,South,169,6.0,9.0,83,0.06,,,0.06,meteohub,2013-09-21 14:47:00,
2013-09-21 10:52:00,68.5,63.5,29.15,South,186,0.0,11.0,84,0.06,,,0.06,meteohub,2013-09-21 14:52:00,
2013-09-21 10:57:00,68.9,63.5,29.15,SE,141,4.0,11.0,83,0.01,,,0.06,meteohub,2013-09-21 14:57:00,
2013-09-21 11:02:00,69.4,63.7,29.14,SSE,167,4.0,11.0,82,0.01,,,0.06,meteohub,2013-09-21 15:02:00,
2013-09-21 11:07:00,69.6,63.9,29.14,South,180,5.0,9.0,82,0.01,,,0.06,meteohub,2013-09-21 15:07:00,
2013-09-21 11:12:00,70.3,64.6,29.14,SSE,167,7.0,11.0,82,0.01,,,0.06,meteohub,2013-09-21 15:12:00,
2013-09-21 11:17:00,71.1,64.9,29.13,SSE,152,4.0,14.0,81,0.01,,,0.06,meteohub,2013-09-21 15:17:00,
2013-09-21 11:22:00,71.6,64.8,29.13,SSW,196,1.0,14.0,79,0.01,,,0.06,meteohub,2013-09-21 15:22:00,
2013-09-21 11:27:00,71.6,64.4,29.13,South,190,2.0,14.0,78,0.01,,,0.06,meteohub,2013-09-21 15:27:00,
2013-09-21 11:32:00,71.8,64.9,29.13,SSE,160,2.0,10.0,79,0.01,,,0.06,meteohub,2013-09-21 15:32:00,
2013-09-21 11:37:00,71.6,64.4,29.13,SW,227,4.0,8.0,78,0.01,,,0.06,meteohub,2013-09-21 15:37:00,
2013-09-21 11:42:00,71.4,64.6,29.12,SE,139,3.0,8.0,79,0.01,,,0.06,meteohub,2013-09-21 15:42:00,
2013-09-21 11:45:00,71.2,64.4,29.12,South,186,4.0,8.0,79,0.01,,,0.06,meteohub,2013-09-21 15:45:00,
2013-09-21 11:47:00,71.2,64.4,29.12,South,191,0.0,8.0,79,0.00,,,0.06,meteohub,2013-09-21 15:47:00,
2013-09-21 11:52:00,71.2,64.4,29.12,South,186,0.0,8.0,79,0.00,,,0.06,meteohub,2013-09-21 15:52:00,
2013-09-21 11:57:00,71.1,64.2,29.12,SE,132,3.0,14.0,79,0.00,,,0.06,meteohub,2013-09-21 15:57:00,
2013-09-21 12:02:00,71.1,64.2,29.12,SE,139,0.0,14.0,79,0.00,,,0.06,meteohub,2013-09-21 16:02:00,
2013-09-21 12:07:00,70.9,64.0,29.12,ESE,117,5.0,14.0,79,0.00,,,0.06,meteohub,2013-09-21 16:07:00,
2013-09-21 12:12:00,71.1,64.9,29.12,SSE,155,4.0,9.0,81,0.00,,,0.06,meteohub,2013-09-21 16:12:00,
2013-09-21 12:17:00,71.2,64.8,29.11,South,173,8.0,10.0,80,0.00,,,0.06,meteohub,2013-09-21 16:17:00,
2013-09-21 12:22:00,71.6,64.8,29.10,SSW,211,6.0,11.0,79,0.00,,,0.06,meteohub,2013-09-21 16:22:00,
2013-09-21 12:27:00,71.8,64.6,29.10,SSW,194,4.0,12.0,78,0.00,,,0.06,meteohub,2013-09-21 16:27:00,
2013-09-21 12:32:00,72.3,65.5,29.10,South,181,3.0,12.0,79,0.00,,,0.06,meteohub,2013-09-21 16:32:00,
2013-09-21 12:37:00,72.7,65.8,29.10,SE,140,3.0,12.0,79,0.00,,,0.06,meteohub,2013-09-21 16:37:00,
2013-09-21 12:42:00,73.2,65.7,29.10,SSW,195,3.0,12.0,77,0.00,,,0.06,meteohub,2013-09-21 16:42:00,
2013-09-21 12:47:00,73.2,64.8,29.10,SSW,194,4.0,12.0,75,0.00,,,0.06,meteohub,2013-09-21 16:47:00,
2013-09-21 12:52:00,73.0,64.9,29.09,SSE,153,3.0,14.0,76,0.00,,,0.06,meteohub,2013-09-21 16:52:00,
2013-09-21 12:57:00,73.0,64.2,29.09,SSE,157,3.0,14.0,74,0.00,,,0.06,meteohub,2013-09-21 16:57:00,
2013-09-21 13:02:00,73.0,64.6,29.09,SSW,208,2.0,14.0,75,0.00,,,0.06,meteohub,2013-09-21 17:02:00,
2013-09-21 13:07:00,73.2,64.4,29.09,South,184,2.0,13.0,74,0.00,,,0.06,meteohub,2013-09-21 17:07:00,
2013-09-21 13:12:00,73.8,64.6,29.08,SE,144,4.0,13.0,73,0.00,,,0.06,meteohub,2013-09-21 17:12:00,
2013-09-21 13:17:00,73.8,64.2,29.08,SSW,198,6.0,12.0,72,0.00,,,0.06,meteohub,2013-09-21 17:17:00,
2013-09-21 13:22:00,73.6,63.1,29.08,SSE,163,4.0,12.0,70,0.00,,,0.06,meteohub,2013-09-21 17:22:00,
2013-09-21 13:27:00,73.6,64.0,29.08,South,170,4.0,12.0,72,0.00,,,0.06,meteohub,2013-09-21 17:27:00,
2013-09-21 13:32:00,73.8,64.6,29.07,SSE,159,0.0,12.0,73,0.00,,,0.06,meteohub,2013-09-21 17:32:00,
2013-09-21 13:37:00,73.6,64.0,29.07,South,178,1.0,9.0,72,0.00,,,0.06,meteohub,2013-09-21 17:37:00,
2013-09-21 13:42:00,73.6,63.7,29.07,SSE,150,1.0,10.0,71,0.00,,,0.06,meteohub,2013-09-21 17:42:00,
2013-09-21 13:47:00,73.6,64.4,29.07,South,173,3.0,10.0,73,0.00,,,0.06,meteohub,2013-09-21 17:47:00,
2013-09-21 13:52:00,73.4,63.5,29.06,South,174,4.0,10.0,71,0.00,,,0.06,meteohub,2013-09-21 17:52:00,
2013-09-21 13:57:00,73.6,63.7,29.06,SSE,161,3.0,10.0,71,0.00,,,0.06,meteohub,2013-09-21 17:57:00,
2013-09-21 14:02:00,73.8,63.7,29.06,SSW,195,4.0,11.0,71,0.00,,,0.06,meteohub,2013-09-21 18:02:00,
2013-09-21 14:07:00,74.1,64.0,29.05,South,189,2.0,11.0,71,0.00,,,0.06,meteohub,2013-09-21 18:07:00,
2013-09-21 14:12:00,74.7,64.2,29.05,South,184,0.0,11.0,70,0.00,,,0.06,meteohub,2013-09-21 18:12:00,
2013-09-21 14:17:00,74.8,64.8,29.05,South,190,3.0,12.0,71,0.00,,,0.06,meteohub,2013-09-21 18:17:00,
2013-09-21 14:22:00,74.7,64.2,29.05,SSE,157,2.0,12.0,70,0.00,,,0.06,meteohub,2013-09-21 18:22:00,
2013-09-21 14:27:00,74.3,63.9,29.05,SSE,155,1.0,12.0,70,0.00,,,0.06,meteohub,2013-09-21 18:27:00,
2013-09-21 14:32:00,73.9,63.5,29.05,SSE,157,3.0,8.0,70,0.00,,,0.06,meteohub,2013-09-21 18:32:00,
2013-09-21 14:37:00,73.6,63.1,29.05,SE,144,4.0,8.0,70,0.00,,,0.06,meteohub,2013-09-21 18:37:00,
2013-09-21 14:42:00,73.0,63.1,29.05,SSW,193,1.0,11.0,71,0.00,,,0.06,meteohub,2013-09-21 18:42:00,
2013-09-21 14:47:00,72.9,63.3,29.05,South,180,1.0,11.0,72,0.00,,,0.06,meteohub,2013-09-21 18:47:00,
2013-09-21 14:52:00,72.7,63.1,29.04,WNW,287,1.0,11.0,72,0.00,,,0.06,meteohub,2013-09-21 18:52:00,
2013-09-21 14:57:00,72.7,63.1,29.04,SSW,209,5.0,9.0,72,0.00,,,0.06,meteohub,2013-09-21 18:57:00,
2013-09-21 15:02:00,72.7,63.5,29.04,SSE,155,3.0,7.0,73,0.00,,,0.06,meteohub,2013-09-21 19:02:00,
2013-09-21 15:07:00,72.7,63.5,29.04,South,184,0.0,11.0,73,0.00,,,0.06,meteohub,2013-09-21 19:07:00,
2013-09-21 15:12:00,72.7,63.5,29.03,SE,130,5.0,11.0,73,0.00,,,0.06,meteohub,2013-09-21 19:12:00,
2013-09-21 15:17:00,72.5,63.7,29.03,SE,133,0.0,11.0,74,0.00,,,0.06,meteohub,2013-09-21 19:17:00,
2013-09-21 15:22:00,72.5,63.3,29.03,SE,134,2.0,9.0,73,0.00,,,0.06,meteohub,2013-09-21 19:22:00,
2013-09-21 15:27:00,72.3,63.1,29.03,South,171,6.0,8.0,73,0.00,,,0.06,meteohub,2013-09-21 19:27:00,
2013-09-21 15:32:00,72.1,63.3,29.03,SSE,163,0.0,10.0,74,0.00,,,0.06,meteohub,2013-09-21 19:32:00,
2013-09-21 15:37:00,72.1,63.3,29.03,NW,322,3.0,10.0,74,0.00,,,0.06,meteohub,2013-09-21 19:37:00,
2013-09-21 15:42:00,72.0,63.1,29.03,SSW,202,6.0,13.0,74,0.00,,,0.06,meteohub,2013-09-21 19:42:00,
2013-09-21 15:47:00,71.8,63.5,29.03,SSE,167,4.0,13.0,75,0.00,,,0.06,meteohub,2013-09-21 19:47:00,
2013-09-21 15:52:00,71.6,63.0,29.02,ESE,111,5.0,13.0,74,0.00,,,0.06,meteohub,2013-09-21 19:52:00,
2013-09-21 15:57:00,71.4,63.1,29.02,SE,142,0.0,10.0,75,0.00,,,0.06,meteohub,2013-09-21 19:57:00,
2013-09-21 16:02:00,71.4,63.1,29.02,SSE,160,0.0,9.0,75,0.00,,,0.06,meteohub,2013-09-21 20:02:00,
2013-09-21 16:07:00,71.4,63.5,29.02,SE,133,0.0,9.0,76,0.00,,,0.06,meteohub,2013-09-21 20:07:00,
2013-09-21 16:12:00,71.2,63.3,29.01,SSE,149,2.0,6.0,76,0.00,,,0.06,meteohub,2013-09-21 20:12:00,
2013-09-21 16:17:00,71.2,63.3,29.00,South,169,0.0,6.0,76,0.00,,,0.06,meteohub,2013-09-21 20:17:00,
2013-09-21 16:22:00,71.1,63.1,29.00,SE,130,1.0,9.0,76,0.00,,,0.06,meteohub,2013-09-21 20:22:00,
2013-09-21 16:27:00,71.1,63.1,29.00,SSE,159,1.0,9.0,76,0.00,,,0.06,meteohub,2013-09-21 20:27:00,
2013-09-21 16:32:00,70.9,63.0,29.00,SE,129,0.0,9.0,76,0.00,,,0.06,meteohub,2013-09-21 20:32:00,
2013-09-21 16:37:00,70.9,63.3,29.00,SE,129,0.0,5.0,77,0.00,,,0.06,meteohub,2013-09-21 20:37:00,
2013-09-21 16:42:00,70.9,63.3,29.00,South,183,3.0,5.0,77,0.00,,,0.06,meteohub,2013-09-21 20:42:00,
2013-09-21 16:47:00,70.7,63.1,29.00,South,186,0.0,5.0,77,0.00,,,0.06,meteohub,2013-09-21 20:47:00,
2013-09-21 16:52:00,70.5,63.0,29.00,SSW,207,3.0,7.0,77,0.00,,,0.06,meteohub,2013-09-21 20:52:00,
2013-09-21 16:57:00,70.5,63.0,28.99,South,186,0.0,7.0,77,0.00,,,0.06,meteohub,2013-09-21 20:57:00,
2013-09-21 17:02:00,70.5,63.0,29.00,South,186,0.0,7.0,77,0.00,,,0.06,meteohub,2013-09-21 21:02:00,
2013-09-21 17:07:00,70.5,63.0,29.00,South,186,0.0,3.0,77,0.00,,,0.06,meteohub,2013-09-21 21:07:00,
2013-09-21 17:12:00,70.3,63.1,29.00,South,186,0.0,3.0,78,0.00,,,0.06,meteohub,2013-09-21 21:12:00,
2013-09-21 17:17:00,70.3,63.5,29.00,South,186,1.0,2.0,79,0.00,,,0.06,meteohub,2013-09-21 21:17:00,
2013-09-21 17:22:00,70.3,63.9,28.99,SSE,167,0.0,3.0,80,0.00,,,0.06,meteohub,2013-09-21 21:22:00,
2013-09-21 17:27:00,70.0,63.1,28.99,South,180,1.0,5.0,79,0.00,,,0.06,meteohub,2013-09-21 21:27:00,
2013-09-21 17:32:00,69.6,63.5,28.99,South,175,0.0,5.0,81,0.00,,,0.06,meteohub,2013-09-21 21:32:00,
2013-09-21 17:37:00,69.4,63.3,28.99,South,190,0.0,5.0,81,0.00,,,0.06,meteohub,2013-09-21 21:37:00,
2013-09-21 17:42:00,69.3,63.1,28.99,South,190,0.0,3.0,81,0.00,,,0.06,meteohub,2013-09-21 21:42:00,
2013-09-21 17:47:00,69.1,63.3,28.99,South,190,0.0,5.0,82,0.00,,,0.06,meteohub,2013-09-21 21:47:00,
2013-09-21 17:52:00,68.7,63.3,28.99,South,178,0.0,5.0,83,0.00,,,0.06,meteohub,2013-09-21 21:52:00,
2013-09-21 17:57:00,68.7,63.3,28.99,SSE,163,0.0,5.0,83,0.00,,,0.06,meteohub,2013-09-21 21:57:00,
2013-09-21 18:02:00,68.5,63.5,28.99,South,182,0.0,5.0,84,0.00,,,0.06,meteohub,2013-09-21 22:02:00,
2013-09-21 18:07:00,68.4,63.3,28.99,WNW,300,1.0,5.0,84,0.00,,,0.06,meteohub,2013-09-21 22:07:00,
2013-09-21 18:12:00,68.4,63.3,29.00,South,170,0.0,4.0,84,0.01,,,0.07,meteohub,2013-09-21 22:12:00,
2013-09-21 18:17:00,68.2,63.5,29.01,ENE,63,0.0,4.0,85,0.02,,,0.08,meteohub,2013-09-21 22:17:00,
2013-09-21 18:22:00,68.0,63.7,29.00,North,351,0.0,4.0,86,0.06,,,0.11,meteohub,2013-09-21 22:22:00,
2013-09-21 18:27:00,67.8,63.5,29.00,North,351,0.0,2.0,86,0.10,,,0.16,meteohub,2013-09-21 22:27:00,
2013-09-21 18:32:00,67.6,63.3,29.00,North,351,0.0,2.0,86,0.11,,,0.17,meteohub,2013-09-21 22:32:00,
2013-09-21 18:37:00,67.5,63.5,29.00,North,351,0.0,1.0,87,0.12,,,0.18,meteohub,2013-09-21 22:37:00,
2013-09-21 18:42:00,67.3,63.3,29.00,North,351,0.0,0.0,87,0.12,,,0.18,meteohub,2013-09-21 22:42:00,
2013-09-21 18:47:00,66.9,63.0,29.00,North,351,0.0,1.0,87,0.14,,,0.20,meteohub,2013-09-21 22:47:00,
2013-09-21 18:52:00,66.7,63.1,29.00,North,351,0.0,1.0,88,0.17,,,0.22,meteohub,2013-09-21 22:52:00,
2013-09-21 18:57:00,66.6,63.0,29.00,North,351,0.0,1.0,88,0.18,,,0.24,meteohub,2013-09-21 22:57:00,
2013-09-21 19:02:00,66.4,62.8,28.99,SSE,155,0.0,4.0,88,0.18,,,0.24,meteohub,2013-09-21 23:02:00,
2013-09-21 19:07:00,66.0,62.6,28.99,WSW,257,2.0,4.0,89,0.19,,,0.25,meteohub,2013-09-21 23:07:00,
2013-09-21 19:12:00,65.8,62.4,28.99,WSW,257,1.0,4.0,89,0.18,,,0.25,meteohub,2013-09-21 23:12:00,
2013-09-21 19:17:00,65.7,62.6,28.99,NNW,344,2.0,3.0,90,0.17,,,0.25,meteohub,2013-09-21 23:17:00,
2013-09-21 19:22:00,65.7,62.6,28.99,NNW,335,0.0,3.0,90,0.14,,,0.26,meteohub,2013-09-21 23:22:00,
2013-09-21 19:27:00,65.5,62.4,28.99,NNW,335,0.0,3.0,90,0.11,,,0.27,meteohub,2013-09-21 23:27:00,
2013-09-21 19:32:00,65.3,62.2,28.98,NNW,335,0.0,3.0,90,0.10,,,0.27,meteohub,2013-09-21 23:32:00,
2013-09-21 19:37:00,65.1,62.4,28.98,NNW,335,0.0,1.0,91,0.09,,,0.27,meteohub,2013-09-21 23:37:00,
2013-09-21 19:42:00,65.1,62.4,28.98,SSE,161,0.0,2.0,91,0.09,,,0.27,meteohub,2013-09-21 23:42:00,
2013-09-21 19:47:00,65.1,62.8,28.99,South,175,3.0,3.0,92,0.08,,,0.28,meteohub,2013-09-21 23:47:00,
2013-09-21 19:52:00,65.1,62.8,28.98,South,188,0.0,4.0,92,0.06,,,0.29,meteohub,2013-09-21 23:52:00,
2013-09-21 19:57:00,65.1,62.8,28.98,ESE,118,1.0,5.0,92,0.06,,,0.30,meteohub,2013-09-21 23:57:00,
2013-09-21 20:02:00,65.1,63.0,28.98,South,186,0.0,5.0,93,0.06,,,0.30,meteohub,2013-09-22 00:02:00,
2013-09-21 20:07:00,65.1,63.0,28.98,South,184,1.0,5.0,93,0.06,,,0.31,meteohub,2013-09-22 00:07:00,
2013-09-21 20:12:00,65.1,63.0,28.98,South,180,5.0,6.0,93,0.06,,,0.31,meteohub,2013-09-22 00:12:00,
2013-09-21 20:17:00,65.1,63.0,28.98,SE,142,0.0,6.0,93,0.06,,,0.32,meteohub,2013-09-22 00:17:00,
2013-09-21 20:22:00,65.3,63.5,28.98,SSE,161,2.0,6.0,94,0.07,,,0.33,meteohub,2013-09-22 00:22:00,
2013-09-21 20:27:00,65.3,63.5,28.98,ESE,117,5.0,6.0,94,0.06,,,0.33,meteohub,2013-09-22 00:27:00,
2013-09-21 20:32:00,65.3,63.5,28.97,South,178,0.0,8.0,94,0.07,,,0.34,meteohub,2013-09-22 00:32:00,
2013-09-21 20:37:00,65.5,63.7,28.97,East,101,2.0,8.0,94,0.08,,,0.35,meteohub,2013-09-22 00:37:00,
2013-09-21 20:42:00,65.5,64.0,28.97,SSW,196,0.0,8.0,95,0.08,,,0.35,meteohub,2013-09-22 00:42:00,
2013-09-21 20:47:00,65.5,64.0,28.97,South,177,5.0,7.0,95,0.08,,,0.36,meteohub,2013-09-22 00:47:00,
2013-09-21 20:52:00,65.5,64.0,28.97,WNW,292,1.0,7.0,95,0.07,,,0.36,meteohub,2013-09-22 00:52:00,
2013-09-21 20:57:00,65.5,64.0,28.97,SSE,155,1.0,7.0,95,0.07,,,0.37,meteohub,2013-09-22 00:57:00,
2013-09-21 21:02:00,65.5,64.0,28.97,South,173,1.0,7.0,95,0.07,,,0.37,meteohub,2013-09-22 01:02:00,
2013-09-21 21:05:00,65.5,64.0,28.97,SSE,149,0.0,7.0,95,0.07,,,0.37,meteohub,2013-09-22 01:05:00,
2013-09-21 21:07:00,65.5,64.0,28.98,West,273,2.0,7.0,95,0.07,,,0.38,meteohub,2013-09-22 01:07:00,
2013-09-21 21:12:00,65.5,64.0,28.99,NE,53,2.0,7.0,95,0.09,,,0.40,meteohub,2013-09-22 01:12:00,
2013-09-21 21:17:00,65.1,63.3,28.99,SSE,153,1.0,7.0,94,0.09,,,0.41,meteohub,2013-09-22 01:17:00,
2013-09-21 21:22:00,64.8,63.0,28.99,ESE,123,0.0,7.0,94,0.09,,,0.42,meteohub,2013-09-22 01:22:00,
2013-09-21 21:27:00,64.2,62.4,28.99,SSE,163,0.0,7.0,94,0.10,,,0.43,meteohub,2013-09-22 01:27:00,
2013-09-21 21:32:00,64.0,62.6,28.98,WNW,298,0.0,6.0,95,0.09,,,0.43,meteohub,2013-09-22 01:32:00,
2013-09-21 21:37:00,64.0,62.2,28.98,North,9,2.0,5.0,94,0.08,,,0.43,meteohub,2013-09-22 01:37:00,
2013-09-21 21:42:00,63.9,62.1,28.99,NE,37,0.0,3.0,94,0.08,,,0.43,meteohub,2013-09-22 01:42:00,
2013-09-21 21:47:00,63.7,62.2,29.00,NW,314,0.0,3.0,95,0.08,,,0.44,meteohub,2013-09-22 01:47:00,
2013-09-21 21:52:00,63.7,62.2,28.99,WNW,289,0.0,3.0,95,0.09,,,0.45,meteohub,2013-09-22 01:52:00,
2013-09-21 21:57:00,63.5,62.1,28.99,WNW,289,0.0,3.0,95,0.09,,,0.46,meteohub,2013-09-22 01:57:00,
2013-09-21 22:02:00,63.3,61.9,28.99,WNW,289,0.0,3.0,95,0.10,,,0.47,meteohub,2013-09-22 02:02:00,
2013-09-21 22:07:00,63.3,61.9,28.98,WNW,289,0.0,2.0,95,0.09,,,0.47,meteohub,2013-09-22 02:07:00,
2013-09-21 22:12:00,63.3,61.9,28.99,WNW,289,0.0,1.0,95,0.08,,,0.48,meteohub,2013-09-22 02:12:00,
2013-09-21 22:17:00,63.1,61.7,28.99,WNW,289,0.0,1.0,95,0.08,,,0.48,meteohub,2013-09-22 02:17:00,
2013-09-21 22:22:00,63.1,61.7,28.99,WNW,289,0.0,0.0,95,0.07,,,0.49,meteohub,2013-09-22 02:22:00,
2013-09-21 22:27:00,63.1,61.7,28.99,WNW,289,0.0,0.0,95,0.08,,,0.51,meteohub,2013-09-22 02:27:00,
2013-09-21 22:32:00,63.1,61.7,29.00,WNW,289,0.0,1.0,95,0.08,,,0.51,meteohub,2013-09-22 02:32:00,
2013-09-21 22:37:00,63.0,61.5,28.99,WNW,289,0.0,1.0,95,0.09,,,0.52,meteohub,2013-09-22 02:37:00,
2013-09-21 22:42:00,63.0,61.5,28.99,WNW,289,0.0,1.0,95,0.10,,,0.53,meteohub,2013-09-22 02:42:00,
2013-09-21 22:47:00,63.0,61.5,29.00,WNW,289,0.0,1.0,95,0.10,,,0.54,meteohub,2013-09-22 02:47:00,
2013-09-21 22:52:00,63.0,61.5,28.99,WNW,289,0.0,1.0,95,0.10,,,0.55,meteohub,2013-09-22 02:52:00,
2013-09-21 22:57:00,62.8,61.3,28.99,WNW,289,0.0,2.0,95,0.10,,,0.56,meteohub,2013-09-22 02:57:00,
2013-09-21 23:02:00,62.6,61.2,28.99,WNW,289,0.0,2.0,95,0.10,,,0.57,meteohub,2013-09-22 03:02:00,
2013-09-21 23:07:00,62.4,61.0,28.99,WNW,289,0.0,2.0,95,0.12,,,0.59,meteohub,2013-09-22 03:07:00,
2013-09-21 23:12:00,62.4,61.0,28.99,WNW,289,0.0,1.0,95,0.13,,,0.61,meteohub,2013-09-22 03:12:00,
2013-09-21 23:17:00,62.2,60.8,28.99,WNW,289,0.0,0.0,95,0.15,,,0.64,meteohub,2013-09-22 03:17:00,
2013-09-21 23:22:00,62.1,60.6,28.99,WNW,289,0.0,1.0,95,0.17,,,0.66,meteohub,2013-09-22 03:22:00,
2013-09-21 23:27:00,62.1,60.3,28.99,WNW,289,0.0,1.0,94,0.16,,,0.67,meteohub,2013-09-22 03:27:00,
2013-09-21 23:32:00,61.9,60.1,28.99,WNW,289,0.0,1.0,94,0.16,,,0.68,meteohub,2013-09-22 03:32:00,
2013-09-21 23:37:00,61.7,60.3,28.99,WNW,289,0.0,1.0,95,0.16,,,0.69,meteohub,2013-09-22 03:37:00,
2013-09-21 23:42:00,61.5,60.1,28.99,WNW,289,0.0,1.0,95,0.17,,,0.70,meteohub,2013-09-22 03:42:00,
2013-09-21 23:47:00,61.5,60.1,28.98,WNW,289,0.0,1.0,95,0.17,,,0.71,meteohub,2013-09-22 03:47:00,
2013-09-21 23:52:00,61.5,60.1,28.98,WNW,289,0.0,0.0,95,0.16,,,0.71,meteohub,2013-09-22 03:52:00,
2013-09-21 23:57:00,61.3,59.9,28.99,WNW,289,0.0,0.0,95,0.16,,,0.72,meteohub,2013-09-22 03:57:00,